Regional Weather Roundup
Issued by NWS Newport/Morehead, NC

Current Version | Previous Version | Graphics & Text | Print | Product List | Glossary On
Versions: 1 2 3 4 5 6 7 8 9 10 11 12 13 14 15 16 17 18 19 20 21 22 23 24 25 26 27 28 29 30 31 32 33 34 35 36 37 38 39 40 41 42 43 44 45 46 47 48 49 50
000 ASUS42 KMHX 291225 RWRMHX WEATHER ROUNDUP FOR EASTERN NORTH CAROLINA NATIONAL WEATHER SERVICE NEWPORT/MOREHEAD CITY NC 800 AM EDT FRI MAY 29 2015 NOTE: "FAIR" INDICATES FEW OR NO CLOUDS BELOW 12,000 FEET WITH NO SIGNIFICANT WEATHER AND/OR OBSTRUCTIONS TO VISIBILITY NCZ015>017-031-032-045>047-102-103-291300- NORTH COAST CITY SKY/WX TMP DP RH WIND PRES REMARKS EDENTON SUNNY 73 64 72 S3 30.26R ELIZABETH CITY SUNNY 73 66 78 SW3 30.26R KITTY HAWK SUNNY 71 65 80 CALM 30.24R MANTEO SUNNY 74 64 71 NE5 30.26R $$ NCZ045>047-081-094-103-104-291300- CENTRAL COAST CITY SKY/WX TMP DP RH WIND PRES REMARKS FRISCO SUNNY 75 65 70 NE6 30.24R SWANQUARTER N/A 75 N/A N/A NE2 30.21S $$ NCZ095-097-098-100-101-291300- SOUTHERN COAST CITY SKY/WX TMP DP RH WIND PRES REMARKS BEAUFORT SUNNY 73 67 81 VRB7 30.23R CEDAR ISLAND N/A 77 N/A N/A NE6 30.27S JACKSONVILLE SUNNY 71 63 75 CALM 30.23R PINEY ISLAND SUNNY N/A N/A N/A E5 30.24R WILMINGTON SUNNY 71 65 81 NE6 30.22R $$ NCZ011>013-027>030-043-044-078>080-089-090>093-098-291300- COASTAL PLAIN CITY SKY/WX TMP DP RH WIND PRES REMARKS AHOSKIE MOSUNNY 70 64 80 S5 30.26R CLINTON MOSUNNY 69 66 89 CALM 30.25R ELIZABETHTOWN SUNNY 69 65 87 CALM 30.24R GOLDSBORO SUNNY 72 65 79 CALM 30.23R GREENVILLE SUNNY 72 64 78 CALM 30.26R HAVELOCK SUNNY 72 66 81 CALM 30.24S KENANSVILLE SUNNY 69 64 84 CALM 30.25S KINSTON MOSUNNY 70 64 83 CALM 30.25R NEW BERN SUNNY 72 65 78 CALM 30.25R RICHLANDS SUNNY 70 61 73 NE3 30.24S ROCKY MOUNT MOSUNNY 71 65 81 S3 30.25R WASHINGTON SUNNY 72 64 75 CALM 30.26R WHITEVILLE SUNNY 68 64 87 CALM 30.23R $$ AMZ130-135-150-152-154-156-158-170-250-252-270-ANZ085-086-088-633-658-670-291300- MARINE OBSERVATIONS STATION/POSITION TIME TEMP WIND PRES WAVE SWELL AIR SEA DIR/SP/G HT/PER HT/PER (UTC) (F) (DEG/KT/KT) (MB) (FT/S) (FT/S) CHESAPEAKE LIGHT 1200 69 200/ 7/ 7 1025.1 64 E VA BEACH 1150 68 65 100/ 4/ 4 1024.1 3/ 8 3/ 8 DUCK 1200 67 55 110/ 3/ 5 1023.5 2 E DUCK 1111 62 N/A 2/ 9 OREGON INLET 1200 73 77 40/ 5/ 8 1024.3 13E OREGON INLT 1200 74 N/A 3/ 9 HATTERAS CG 1200 76 76 30/ 5/ 7 1023.5 DIAMOND BUOY 1150 75 76 40/ 6/ 8 1023.8 4/ 9 3/ 9 CAPE LOOKOUT 1200 74 40/ 8/ 8 1023.5 BEAUFORT LAB 1200 73 76 40/ 5/ 6 1023.0 27 SE WRIGHTSVLE 1200 75 60/ 10/ 12 N/A 5 SE WRIGHTSVLE 1108 75 77 70/ 6/ 10 1023.1 225 S CAPE HAT 1150 75 74 80/ 16/ 19 1021.5 5/ 9 3/ 9 41 SE CHARLESTON 1150 77 78 60/ 10/ 12 1021.2 4/ 9 3/ 9 $$

USA.gov is the U.S. government's official web portal to all federal, state and local government web resources and services.